sat.trackr.live / text

‹ back to catalog

STARLINK-5235

NORAD 54185 · 2022-141AE

PAYLOAD ACTIVE UNKNOWN

§ Identity

Operator
Country
US
Launch date
2022-10-28
Launch site
AFWTR
Launch vehicle
Mass (kg)
RCS (m²)

Purposes: comms

External: N2YO · Heavens-Above · Gunter

§ Orbital elements

Epoch: 2026-05-24T22:44:08.029824Z

Period
95.44 min
Inclination
53.2142°
Eccentricity
0.0001585
Mean motion
15.08840236 rev/d
Perigee alt
538.6 km
Apogee alt
540.8 km
Semi-major
6,917.9 km
B*
-3.6287e-5
RAAN
21.5226°
Arg perigee
92.0247°
Mean anomaly
268.0927°
Rev number
19,737

§ Raw data

STARLINK-52351 54185U 22141AE  26144.94731516 -.00000865  00000+0 -36287-4 0  99962 54185  53.2142  21.5226 0001585  92.0247 268.0927 15.08840236197371

JSON: /api/v1/satellites/54185 · /tle

For live sub-satellite position, see the globe view (requires WebGL).

§ Visibility from observer

Set your observer location to see the next 7 days of passes ≥ 10°. The values pass through the URL so the page stays shareable.

No JS? Fill the form by hand. The geolocation button needs JavaScript.